カタログに戻る

GRUS-1A

運用中科学SSO
NORAD 43890·PAYLOAD·🇯🇵 Japan

打ち上げ Dec 27, 2018 から Vostochny Cosmodrome

Loading…

次のパス (今後24時間)

TLE

最新Source: Space-Track

元期: Sep 14, 2026, 15:06 UTC

1 43890U 18111Q   26257.62951251  .00000826  00000-0  72995-4 0  9991
2 43890  97.4358 120.7202 0007237 204.8025 155.2851 14.98855536421105

AllMySatでGRUS-1Aをリアルタイム追跡

Download on the App Store